Flag for Zimbabwe Weather past 2 weeks in Harare, Zimbabwe

Now
63 °F

Passing clouds.


Feels Like: 63 °F
Forecast: 51 / 73 °F
Wind: 7 mph from Southeast

Location: Harare Kutsaga Airport

Current Time: Jul 31, 2015 at 9:50:28 PM

Latest Report: Jul 31, 2015 at 9:00 PM


Visibility: N/A

Pressure: 30.30 "Hg (25.42 "Hg at 1490m altitude)

Humidity: 37%

Dew point: 36 °F

Location of HarareLocation

Historic Weather in Harare — Graph

°F

Harare temperature yesterday

Maximum temperature yesterday: 79 °F (at 3:00 PM)
Minimum temperature yesterday: 54 °F (at 4:00 AM)
Average temperature yesterday: 64 °F

Past Weeks' High & Low Weather Summary

 TemperatureHumidityPressure
High81 °F (Jul 25, 3:00 PM)100% (Jul 18, 5:00 AM)30.42 "Hg (Jul 18, 5:00 AM)
Low43 °F (Jul 18, 5:00 AM)18% (Jul 17, 3:00 PM)30.15 "Hg (Jul 25, 2:00 PM)
Average62 °F55%30.27 "Hg
* Reported Jul 16 8:00 PM — Jul 31 8:00 PM, Harare, Weather by CustomWeather, © 2015

Note: Actual official high and low records may vary slightly from our data, if they occured in-between our weather recording intervals... More about our weather records

Advertising

Harare weather history for previous 24 hours

 ConditionsComfort  
Time TempWeatherWind HumidityBarometerVisibility
8:00 PM
Fri, Jul 31
66 °FPassing clouds.7 mph35%30.27 "HgN/A
7:00 PM68 °FClear.6 mph38%30.24 "Hg10 mi
6:00 PM72 °FClear.6 mph31%30.21 "Hg10 mi
5:00 PM79 °FSunny.9 mph23%30.18 "Hg10 mi
4:00 PM81 °FPassing clouds.10 mph23%30.18 "HgN/A
3:00 PM81 °FPassing clouds.14 mph21%30.18 "HgN/A
2:00 PM81 °FPassing clouds.13 mph23%30.21 "HgN/A
1:00 PM79 °FPassing clouds.13 mph24%30.21 "HgN/A
12:00 PM79 °FPassing clouds.9 mph28%30.24 "HgN/A
11:00 AM75 °FPassing clouds.10 mph29%30.27 "HgN/A
10:00 AM73 °FPassing clouds.9 mph36%30.27 "HgN/A
9:00 AM70 °FSunny.7 mph43%30.24 "Hg10 mi
8:00 AM64 °FSunny.7 mph56%30.21 "Hg10 mi
7:00 AM55 °FSunny.7 mph72%30.21 "Hg10 mi
6:00 AM52 °FClear.No wind77%30.18 "Hg10 mi
5:00 AM54 °FClear.7 mph77%30.18 "Hg10 mi
4:00 AM57 °FClear.8 mph67%30.18 "Hg10 mi
2:00 AM55 °FClear.6 mph72%30.18 "Hg10 mi
1:00 AM59 °FClear.8 mph63%30.21 "Hg10 mi
12:00 AMN/AClear.8 mphN/A30.21 "Hg10 mi
10:00 PM
Thu, Jul 30
57 °FClear.6 mph67%30.21 "Hg10 mi
9:00 PM59 °FClear.5 mph59%30.21 "Hg10 mi
Weather by CustomWeather, © 2015

See weather overviewHow to use our weather pages